This is the latest recevied weather packets stored in our database for station/object SQ5AAG-2. If no packets are shown the sender has not sent any weather packets the latest 10 day(s).
| Time | Temp. | Humidity | Pressure | Rain* | Wind** | Luminosity | Snow |
|---|---|---|---|---|---|---|---|
| 1777398623 | 7.78° C | 44% | 1009.6 hPa | 0 mm | - | - | - |
| 1777398323 | 8.33° C | 43% | 1009.6 hPa | 0 mm | - | - | - |
| 1777398022 | 8.33° C | 43% | 1009.6 hPa | 0 mm | - | - | - |
| 1777397722 | 8.33° C | 42% | 1009.6 hPa | 0 mm | - | - | - |
| 1777397422 | 8.33° C | 41% | 1009.5 hPa | 0 mm | - | - | - |
| 1777397121 | 8.33° C | 41% | 1009.5 hPa | 0 mm | - | - | - |
| 1777396827 | 8.89° C | - | - | 0 mm | - | - | - |
| 1777396821 | 8.89° C | 41% | 1009.4 hPa | 0 mm | - | - | - |
| 1777396521 | 8.89° C | 40% | 1009.2 hPa | 0 mm | - | - | - |
| 1777396221 | 8.89° C | 39% | 1009.3 hPa | 0 mm | - | - | - |
| 1777395921 | 8.89° C | 38% | 1009.3 hPa | 0 mm | - | - | - |
| 1777395621 | 9.44° C | 37% | 1009.3 hPa | 0 mm | - | - | - |
| 1777395321 | 9.44° C | 37% | 1009.4 hPa | 0 mm | - | - | - |
| 1777395020 | 9.44° C | 36% | 1009.2 hPa | 0 mm | - | - | - |
| 1777394723 | 9.44° C | 36% | 1009.3 hPa | 0 mm | - | - | - |
| 1777394420 | 9.44° C | 35% | 1009.3 hPa | 0 mm | - | - | - |
| 1777394121 | 10° C | 34% | 1009.1 hPa | 0 mm | - | - | - |
| 1777393822 | 10° C | 34% | 1009 hPa | 0 mm | - | - | - |
| 1777393524 | 10° C | 34% | 1008.9 hPa | 0 mm | - | - | - |
| 1777393218 | 10.56° C | 33% | 1009.1 hPa | 0 mm | - | - | - |
| 1777392918 | 11.11° C | 33% | 1008.9 hPa | 0 mm | - | - | - |
| 1777392619 | 11.67° C | 32% | 1009 hPa | 0 mm | - | - | - |
| 1777392318 | 12.78° C | 31% | 1008.9 hPa | 0 mm | - | - | - |
| 1777392019 | 12.78° C | 31% | 1008.9 hPa | 0 mm | - | - | - |
| 1777391716 | 11.67° C | 33% | 1008.9 hPa | 0 mm | - | - | - |
* Rain latest hour (hover to see other rain measurements)
** Current wind speed in m/s (hover to see current wind gust speed)